Weather in Meliorativnyy

Russia / Republic of Karelia     61°51′55″N   34°14′28″E
temp.,
°C
wind,
m/s
gust,
m/s
humid.,
%
clouds,
%
prec.,
mm/h
press.,
hPa
HPBL,
m
6 august, fri
fri600:00+11ene1176100 0.0 101819
03:00+10ne118883 0.0 101821
06:00+12ene288057 0.0 1017277
09:00+16e456297 0.1 1017833
12:00+17ene475691 0.3 10181196
15:00+19e4743100 0.3 10171676
18:00+17ese365638 0.0 1017684
21:00+12ese228617 0.0 101736
7 august, sat
sat700:00+12ene39895 0.0 1017319
03:00+12e4108853 0.0 1017605
06:00+14e598085 0.0 1017805
09:00+16e61073100 0.0 1016856
12:00+18e61066100 0.0 10161125
15:00+18ese61074100 0.0 10151007
18:00+17e61274100 0.0 10141020
21:00+15e61391100 0.7 1014895
8 august, sun
sun800:00+14e71597100 3.7 1013924
03:00+15e61297100 5.4 1013960
06:00+14e51098100 0.4 1012760
09:00+14e51098100 1.1 1012677
12:00+15e4998100 1.2 1012597
15:00+15e3698100 1.5 1013511
18:00+16ene2599100 0.1 1014343
21:00+15ne13100100 0.2 1015197
9 august, mon
mon900:00+14ne129998 0.1 101598
03:00+14nne1210088 0.1 101698
06:00+14ene119889 0.0 101696
09:00+16ese1294100 0.0 1016288
12:00+19ese2372100 0.1 1016913
15:00+19ese3473100 0.1 1016456
18:00+20e3673100 0.0 1016369
21:00+17e298536 0.0 1016245
10 august, tue
tue1000:00+17se1285100 0.0 101538
03:00+15sw2797100 0.0 1016174
06:00+16ssw3996100 0.0 1016270
09:00+18wsw478377 0.0 1017496
12:00+22wsw34586 0.0 10181061
15:00+24sw2444100 0.0 10172103
18:00+23s245272 0.0 1018994
21:00+17sw117618 0.0 101811